Location: Brusselsch Zeekanaal
(50.8667°N, 4.3667°E)
Time: 06:14:42
(UTC+00:00)

Cosmos 2322 Rocket - Pass Details

Date: 08 November 2025
Orbit: 830 x 851 km, 71.0° (Epoch: 11 December)

Event Time Altitude Azimuth Distance (km) Brightness Sun altitude
Exits shadow 02:17:45 20° 55° (NE) 1,852 4.4 -41.7°
Drops below altitude 10° 02:19:43 10° 43° (NE) 2,479 5.2 -41.4°
Sets 02:22:20 0° 35° (NE) 3,422 6.1 -41.0°
